,

(GMT )
Kauhava

Weather History for EFKA - March, 2013

Change the Weather History Date:

Thursday, March 7, 2013

  Actual Average Record
Temperature  
Mean Temperature 13 °F -  
Max Temperature 23 °F - - ()
Min Temperature -2 °F - - ()
Degree Days  
Heating Degree Days 52    
Moisture  
Dew Point 9 °F    
Average Humidity 78    
Maximum Humidity 92    
Minimum Humidity 47    
Precipitation  
Precipitation 0.00 in - - ()
Sea Level Pressure  
Sea Level Pressure 29.86 in    
Wind  
Wind Speed 8 mph ()    
Max Wind Speed 26 mph    
Max Gust Speed -    
Visibility 6.2 miles    
Events Snow    
T = Trace of Precipitation, MM = Missing Value Source: Averaged Metar Reports

Daily Weather History Graph

Daily Weather History Graph

Search for Another Location

Airport or City:

Trip Planner

Search our weather history database for the weather conditions in past years. The results will help you decide how hot, cold, wet, or windy it might be!

Date:

Astronomy

Mar. 07, 2013 Rise Set
Actual Time 7:12 AM EET 6:06 PM EET
Civil Twilight 6:27 AM EET 6:52 PM EET
Nautical Twilight 5:33 AM EET 7:45 PM EET
Astronomical Twilight 4:37 AM EET 8:42 PM EET
Moon 5:18 AM EET (3/7) 12:16 PM EET (3/7)
Length of Visible Light 12h 25m
Length of Day
10h 53m
Waning Crescent, 23% of the Moon is Illuminated
Mar 7
Waning Crescent
Mar 11
New
Mar 19
First Quarter
Mar 27
Full
Apr 3
Last Quarter

Hourly Weather History & Observations

Time (EET) Temp. Windchill Dew Point Humidity Pressure Visibility Wind Dir Wind Speed Gust Speed Precip Events Conditions
12:20 AM 14.0 °F 3.9 °F 10.4 °F 86% 29.68 in - WSW 6.9 mph - N/A   Clear
12:50 AM 14.0 °F 6.5 °F 10.4 °F 86% 29.68 in - WSW 4.6 mph - N/A   Clear
1:20 AM 12.2 °F 2.9 °F 10.4 °F 92% 29.68 in - WSW 5.8 mph - N/A   Clear
1:50 AM 14.0 °F 5.1 °F 10.4 °F 86% 29.68 in - SW 5.8 mph - N/A   Clear
2:00 AM 13 °F - 9 °F 78% 29.70 in 31 mi West 4.5 mph - -   Clear
2:20 AM 12.2 °F 6.1 °F 8.6 °F 85% 29.68 in - SSW 3.5 mph - N/A   Clear
2:50 AM 14.0 °F 5.1 °F 10.4 °F 86% 29.68 in - SSW 5.8 mph - N/A   Clear
3:20 AM 6.8 °F -3.5 °F 5.0 °F 92% 29.68 in - SSW 5.8 mph - N/A   Clear
3:50 AM 6.8 °F -2.0 °F 5.0 °F 92% 29.68 in - SSW 4.6 mph - N/A   Clear
4:20 AM 6.8 °F -2.0 °F 5.0 °F 92% 29.68 in - SSW 4.6 mph - N/A   Clear
4:50 AM 12.2 °F 1.7 °F 10.4 °F 92% 29.68 in - WSW 6.9 mph - N/A   Clear
5:20 AM 14.0 °F 3.9 °F 10.4 °F 86% 29.68 in - WSW 6.9 mph - N/A   Clear
5:50 AM 14.0 °F 3.9 °F 10.4 °F 86% 29.68 in - WSW 6.9 mph - N/A   Clear
6:20 AM 14.0 °F 3.9 °F 10.4 °F 86% 29.68 in - WSW 6.9 mph - N/A   Clear
6:50 AM 15.8 °F 6.1 °F 12.2 °F 86% 29.68 in - WSW 6.9 mph - N/A   Clear
7:20 AM 17.6 °F 8.2 °F 12.2 °F 79% 29.68 in - WSW 6.9 mph - N/A   Clear
7:50 AM 17.6 °F 5.7 °F 12.2 °F 79% 29.71 in - West 10.4 mph - N/A   Clear
8:20 AM 17.6 °F 5.7 °F 12.2 °F 79% 29.71 in - West 10.4 mph - N/A   Clear
8:50 AM 17.6 °F 5.7 °F 12.2 °F 79% 29.71 in - West 10.4 mph - N/A   Clear
9:20 AM 19.4 °F 5.5 °F 14.0 °F 80% 29.74 in - WNW 15.0 mph - N/A   Clear
9:50 AM 21.2 °F 7.8 °F 14.0 °F 74% 29.74 in 6.2 mi WNW 15.0 mph - N/A   Partly Cloudy
10:20 AM 21.2 °F 7.3 °F 12.2 °F 68% 29.77 in 6.2 mi NW 16.1 mph - N/A   Partly Cloudy
10:50 AM 23.0 °F 8.7 °F 12.2 °F 63% 29.77 in 6.2 mi NW 18.4 mph - N/A   Scattered Clouds
11:20 AM 23.0 °F 7.2 °F 14.0 °F 68% 29.80 in 6.2 mi NNW 23.0 mph - N/A   Mostly Cloudy
11:50 AM 21.2 °F 3.9 °F 12.2 °F 68% 29.83 in 6.2 mi NNW 26.5 mph - N/A Snow Light Snow Showers
12:20 PM 21.2 °F 5.2 °F 12.2 °F 68% 29.86 in 6.2 mi NNW 21.9 mph - N/A   Partly Cloudy
12:50 PM 21.2 °F 6.4 °F 12.2 °F 68% 29.89 in 6.2 mi NNW 18.4 mph - N/A   Partly Cloudy
1:20 PM 21.2 °F 6.4 °F 12.2 °F 68% 29.89 in 6.2 mi NNW 18.4 mph - N/A   Partly Cloudy
1:50 PM 23.0 °F 9.2 °F 12.2 °F 63% 29.92 in 6.2 mi NNW 17.3 mph - N/A   Partly Cloudy
2:00 PM 23 °F - 11 °F 47% 29.94 in 22 mi North 11.2 mph - -   Clear
2:20 PM 23.0 °F 10.6 °F 12.2 °F 63% 29.95 in - NNW 13.8 mph - N/A   Clear
2:50 PM 23.0 °F 10.6 °F 12.2 °F 63% 29.95 in - NNW 13.8 mph - N/A   Clear
3:20 PM 23.0 °F 11.1 °F 10.4 °F 59% 29.98 in - NNW 12.7 mph - N/A   Clear
3:50 PM 23.0 °F 11.1 °F 10.4 °F 59% 29.98 in - NNW 12.7 mph - N/A   Clear
4:20 PM 23.0 °F 11.7 °F 12.2 °F 63% 30.01 in - NW 11.5 mph - N/A   Clear
4:50 PM 23.0 °F 12.4 °F 12.2 °F 63% 30.01 in - WNW 10.4 mph - N/A   Clear
5:20 PM 21.2 °F 11.7 °F 12.2 °F 68% 30.01 in - WNW 8.1 mph - N/A   Clear
5:50 PM 21.2 °F 13.6 °F 10.4 °F 63% 30.04 in - WNW 5.8 mph - N/A   Clear
6:20 PM 19.4 °F 12.8 °F 10.4 °F 68% 30.04 in - West 4.6 mph - N/A   Clear
6:50 PM 15.8 °F 7.2 °F 8.6 °F 73% 30.04 in - West 5.8 mph - N/A   Clear
7:20 PM 14.0 °F 8.2 °F 8.6 °F 79% 30.06 in - WSW 3.5 mph - N/A   Clear
7:50 PM 10.4 °F 4.0 °F 6.8 °F 85% 30.06 in - WSW 3.5 mph - N/A   Clear
8:00 PM 11 °F - 8 °F 84% 30.08 in 28 mi WSW 4.5 mph - -   Clear
8:20 PM 8.6 °F -1.3 °F 5.0 °F 85% 30.06 in - WSW 5.8 mph - N/A   Clear
8:50 PM 10.4 °F - 6.8 °F 85% 30.06 in - Variable 2.3 mph - N/A   Clear
9:20 PM 5.0 °F - 1.4 °F 85% 30.06 in - Variable 1.2 mph - N/A   Clear
9:50 PM 5.0 °F -2.1 °F 3.2 °F 92% 30.06 in - SW 3.5 mph - N/A   Clear
10:20 PM 5.0 °F - 3.2 °F 92% 30.06 in - SSE 2.3 mph - N/A   Clear
10:50 PM 5.0 °F - 3.2 °F 92% 30.06 in - SSE 2.3 mph - N/A   Clear
11:20 PM 3.2 °F - 1.4 °F 92% 30.06 in - Calm Calm - N/A   Clear
11:50 PM -2.2 °F - -4.0 °F 92% 30.06 in - Variable 1.2 mph - N/A   Clear